Location: Berduj
(43.0019°N, 22.3781°E)
Time: 17:42:22
(UTC+00:00)

Cosmos 2297 - Pass Details

Date: 19 October 2019
Orbit: 834 x 860 km, 71.0° (Epoch: 12 November)

Event Time Altitude Azimuth Distance (km) Brightness Sun altitude
Rises 17:24:52 0° 184° (S) 3,389 6.9 -19.5°
Reaches altitude 10° 17:27:22 10° 179° (S) 2,463 6.1 -20.0°
Maximum altitude 17:32:45 46° 107° (ESE) 1,130 3.9 -20.9°
Enters shadow 17:33:55 40° 74° (ENE) 1,230 4.1 -21.1°
